Showing default

INNOCUBE (TUBSAT-31), 62616

Orbit data source: Space-Track

INNOCUBE (TUBSAT-31), 62616 is a payload satellite owned by TUB (DE) in SSO that was launched on Tue, 14 Jan 2025 UTC via an FALCON 9 launch vehicle from the Air Force Western Test Range (AFWTR). Payload-class satellites include a variety of spacecraft equipped with specific instruments for various scientific and technological missions. These include communications satellites like Starlink; space stations such as the ISS; scientific satellites like the Hubble; Earth observation satellites from companies like Planet Labs, Umbra, and HawkEye 360; GPS; miniature CubeSats for education and research; and military/defense satellites.

Loading next visibility...
Identifier
62616, 2025-009H
Orbit
SSO
Country
Flag of DEDE / GER
Related business
Manufacturer
TUB
Mission
Operational Amateur Technology
Bus & Motor
CUBESAT 3U, Unknown motor
Mass
~4 kg wet, ~4 kg dry
Launch date (UTC)
2025-01-14 (1 year ago)
Launch vehicle
FALCON 9
Launch site
Air Force Western Test Range (AFWTR)
Object type
Payload
Rocket body
Debris
Shape & HBR
Box, 0.1 m
Radar Cross Section
0.035 m², Small (<0.1 m²)

Expand to show TLE details & history
Last TLE update: 8 hours ago

TLE from 8 hours ago
0 INNOCUBE (TUBSAT-31)
1 62616U 25009H   26126.19094994  .00007353  00000-0  28925-3 0  9996
2 62616  97.3899 206.6415 0007428 116.8403 243.3596 15.25919794 72414
Epoch: 2026-05-06T04:34Z
TLE epoch observation values (Epoch: 2026-05-06T04:34:58.074Z)
Latitude
-0.00001°
Longitude
-86.15546°
Altitude
493.414 km
Speed
7.617 km/s
True Right ascension
13h 46m 33s
True Declination
0° 00' 00"
Sunlit
Object was in full shadow at epoch
Visualization orbit readout
Latitude
Unknown
Longitude
Unknown
Altitude
Unknown
Speed
Unknown
Apparent Right ascension
Unknown
Apparent Declination
Unknown
Sunlit
N/A
Visualization observer readout
Local Sidereal Time
20:29:20
Azimuth
Unknown
Elevation
Unknown
Doppler factor
Unknown
Orbital elements
Apogee altitude
490.08 km
Perigee altitude
479.884 km
Semi-major axis
6,863.119 km
Eccentricity
0.00074
Inclination
97.3899°
RAAN
206.6415°
Arg. of periapsis
116.8403°
True anomaly
243.28355°
Mean anomaly
243.3596°
Eccentric anomaly
243.32157°
Mean motion
3.81734 °/min
Orbital period
94.31 mins
BSTAR
0.00028925
Loading maneuver chart data...
Computing Atmospheric mass density...
Loading historical data...
Loading historical data...
Loading historical data...
Loading historical data...
Loading historical data...
Loading historical data...
Loading historical data...

Documentation

Showing up to 5 results
|